[[{"header":{"parameterUnit":"m.s-1","parameterCategory":1,"la1":30.2991,"la2":30.254,"lo1":-89.0895,"lo2":-89.0444,"dy":0.0017,"dx":0.0017,"nx":28,"ny":28,"refTime":"2024-03-29T03:00:00:Z","depth":0,"parameterNumber":2,"parameterNumberName":"U-component_of_WINDS"},"data":[0,0,0,0,0,0,0,0,0,0,0,0,0,0,0,0,0,0,0,0,0,0,0,0,0,0,0,0,0,0,0,0,0,0,0,0,0,0,0,0,0,0,0,0,0,0,0,0,0,0,0,0,0,0,0,0,0,0,-0.9728,-0.9728,0,-0.975,-0.9751,-0.9751,-0.9738,-0.9737,-0.9737,-0.9736,-0.9762,-0.9764,-0.9765,0,0,0,0,0,0,0,0,0,0,0,0,0,-0.9678,-0.9679,-0.9728,-0.9728,-0.9728,-0.975,-0.9751,-0.9751,-0.9738,-0.9737,-0.9737,-0.9736,-0.9762,-0.9763,-0.9765,0,0,0,0,0,0,0,0,0,0,0,0,0,-0.97,-0.9679,-0.9728,-0.9725,-0.9724,-0.975,-0.9751,-0.9751,-0.9738,-0.9737,-0.9736,-0.9735,-0.9761,-0.9763,-0.9765,-0.9796,0,0,-0.9771,-0.9772,0,0,0,0,0,0,0,0,-0.9699,-0.9702,-0.9725,-0.9725,-0.9725,-0.974,-0.9743,-0.9766,-0.9738,-0.9733,-0.9736,-0.9735,-0.9756,-0.9758,-0.9765,-0.9798,-0.9799,-0.9771,-0.9772,-0.9773,-0.9774,0,0,0,0,0,0,0,-0.9697,-0.9701,-0.9737,-0.9725,-0.9725,-0.9723,-0.9725,-0.9747,-0.975,-0.9734,-0.9733,-0.9735,-0.9756,-0.9763,-0.9765,-0.9799,-0.9771,-0.9773,-0.9774,-0.9775,-0.986,-0.9861,0,0,0,0,0,0,-0.9695,-0.9699,-0.9736,-0.9737,-0.9709,-0.9725,-0.9727,-0.9736,-0.9749,-0.975,-0.9736,-0.9735,-0.976,-0.9763,-0.9766,-0.9804,-0.9773,-0.9775,-0.9776,-0.9859,-0.9861,-0.9862,0,0,0,0,0,0,-0.9694,-0.9699,-0.9735,-0.9718,-0.9723,-0.9727,-0.9737,-0.9737,-0.9744,-0.9751,-0.9752,-0.9742,-0.9759,-0.9763,-0.9789,-0.9805,-0.9776,-0.9778,-0.9858,-0.986,-0.9861,-0.988,0,0,0,0,0,0,-0.9693,-0.9698,-0.9709,-0.9719,-0.9724,-0.9756,-0.9738,-0.9738,-0.9747,-0.9746,-0.9758,-0.9759,-0.9759,-0.9786,-0.9791,-0.9807,-0.9779,-0.9857,-0.9859,-0.9861,-0.9878,-0.9882,-0.9886,0,0,0,0,0,-0.9691,-0.9714,-0.971,-0.9714,-0.9737,-0.9757,-0.976,-0.9759,-0.9749,-0.976,-0.9765,-0.9758,-0.9803,-0.9789,-0.9794,-0.9811,-0.9856,-0.9858,-0.9861,-0.9876,-0.9881,-0.9885,0,0,0,0,0,0,-0.9707,-0.9715,-0.971,-0.9737,-0.9746,-0.9755,-0.977,-0.9765,-0.9778,-0.9776,-0.9775,-0.9778,-0.9805,-0.9811,-0.9796,-0.9843,-0.9828,-0.9831,-0.9838,-0.9843,-0.9846,-0.9844,-0.9781,0,0,0,0,0,-0.9714,-0.9728,-0.9735,-0.9758,-0.9763,-0.9765,-0.9774,-0.9773,-0.9783,-0.9787,-0.9794,-0.9805,-0.9822,-0.9833,-0.9848,-0.9879,-0.9882,-0.9894,-0.9897,-0.99,-0.9903,-0.9921,-0.9927,-0.987,-0.987,-0.987,0,0,-0.9727,-0.9734,-0.9743,-0.9761,-0.9768,-0.9785,-0.9769,-0.9787,-0.9799,-0.979,-0.9814,-0.982,-0.9833,-0.9862,-0.9875,-0.9867,-0.992,-0.9904,-0.9906,-0.9907,-0.9925,-0.993,-0.9935,-0.9872,-0.9871,-0.9871,0,0,-0.9761,-0.9766,-0.9786,-0.9794,-0.9805,-0.9807,-0.9812,-0.9821,-0.9824,-0.9849,-0.9843,-0.9859,-0.9887,-0.9896,-0.9905,-0.9943,-0.9938,-0.9949,-0.9968,-0.9986,-0.999,-0.9994,-1.0009,-1.0014,-0.9952,-0.9952,-0.9952,0,-0.9776,-0.9799,-0.9797,-0.9816,-0.9824,-0.9816,-0.9837,-0.9845,-0.9861,-0.9868,-0.986,-0.9896,-0.9904,-0.9935,-0.9944,-0.9951,-0.9958,-0.9947,-0.999,-0.9994,-0.9997,-1.0011,-1.0016,-0.9953,-0.9953,-0.9953,-0.9953,0,-0.9819,-0.9835,-0.985,-0.9865,-0.9876,-0.9895,-0.9897,-0.9909,-0.9907,-0.991,-0.9936,-0.9945,-0.9963,-0.9971,-0.9969,-1.0002,-0.9997,-0.9989,-0.9974,-1.0004,-1.0017,-1.0022,-0.9955,-0.9954,-0.9954,-0.9954,0,0,-0.9862,-0.9876,-0.9881,-0.9888,-0.99,-0.9914,-0.9934,-0.995,-0.996,-0.9972,-0.999,-1.0015,-1.0008,-1.0017,-1.0017,-1.0033,-1.0064,-1.0023,-1.0023,-1.003,-1.0102,-1.0108,-1.0114,-1.006,-1.0061,-1.0062,-1.0101,0,-0.9896,-0.9929,-0.9929,-0.996,-0.9976,-0.997,-0.9988,-0.9998,-1.0002,-1.0017,-1.0023,-1.004,-1.0029,-1.0035,-1.005,-1.0057,-1.0078,-1.0054,-1.0078,-1.0079,-1.0074,-1.012,-1.0126,-1.0162,-1.0106,-1.0107,-1.0107,0,-0.994,-0.9952,-0.9985,-0.9996,-1.0003,-1.0018,-1.0034,-1.0048,-1.0061,-1.0063,-1.0074,-1.0072,-1.0094,-1.0079,-1.011,-1.0094,-1.0104,-1.0109,-1.011,-1.0112,-1.0095,-1.0124,-1.0173,-1.0179,-1.0115,-1.0114,-1.0114,0,-0.9968,-0.9994,-1.0017,-1.0023,-1.0036,-1.0047,-1.0054,-1.0065,-1.0075,-1.009,-1.0097,-1.0114,-1.0123,-1.0138,-1.0141,-1.0129,-1.0173,-1.0157,-1.0176,-1.0176,-1.0185,-1.0184,-1.0237,-1.0192,-1.0191,-1.0191,-1.0191,0,-1.0006,-1.0027,-1.003,-1.0044,-1.0067,-1.0067,-1.0091,-1.0097,-1.0107,-1.0123,-1.012,-1.0135,-1.0139,-1.0156,-1.0159,-1.0185,-1.0189,-1.0192,-1.0193,-1.0192,-1.0192,-1.0199,-1.0197,-1.0193,-1.0192,-1.0192,-1.0192,0,-1.0042,-1.0044,-1.0069,-1.0079,-1.0083,-1.01,-1.0109,-1.0124,-1.0128,-1.0149,-1.0154,-1.0161,-1.0181,-1.0185,-1.0209,-1.0212,-1.0243,-1.0241,-1.0238,-1.0238,-1.0256,-1.0255,-1.0315,-1.0324,-1.0273,-1.0273,-1.0274,0,-1.0066,-1.0081,-1.0093,-1.0103,-1.011,-1.0126,-1.0137,-1.0138,-1.015,-1.0165,-1.0179,-1.0198,-1.0213,-1.0246,-1.0254,-1.0273,-1.0272,-1.0292,-1.0274,-1.0274,-1.0272,-1.0271,-1.0273,-1.0295,-1.0295,-1.0296,-1.0296,0,-1.0108,-1.0109,-1.0123,-1.0139,-1.0151,-1.0164,-1.0176,-1.0185,-1.0188,-1.0201,-1.0221,-1.0233,-1.0257,-1.0277,-1.0296,-1.0304,-1.0302,-1.0301,-1.0307,-1.0307,-1.0305,-1.0307,-1.0247,-1.03,-1.03,-1.0299,-1.0299,-1.0299,-1.0139,-1.0153,-1.0163,-1.018,-1.0189,-1.0201,-1.0215,-1.0221,-1.0237,-1.0256,-1.0256,-1.0278,-1.0292,-1.0317,-1.0327,-1.0345,-1.0339,-1.0347,-1.0349,-1.0351,-1.0352,-1.0302,-1.0348,-1.0348,-1.0348,-1.0348,-1.0348,0,-1.0182,-1.0188,-1.0204,-1.022,-1.0234,-1.0229,-1.0242,-1.0254,-1.0273,-1.0285,-1.0301,-1.0324,-1.0344,-1.0354,-1.0374,-1.0387,-1.0386,-1.0392,-1.0391,-1.0393,-1.0356,-1.035,-1.0392,-1.0392,-1.0392,-1.0392,-1.0392,-1.0392,-1.0205,-1.0229,-1.0231,-1.0259,-1.0266,-1.0287,-1.0295,-1.0306,-1.0316,-1.0342,-1.0358,-1.0364,-1.0376,-1.0397,-1.0415,-1.0418,-1.0426,-1.0432,-1.0434,-1.04,-1.0395,-1.0391,-1.0385,-1.0434,-1.0434,-1.047,-1.047,-1.047]},{"header":{"parameterUnit":"m.s-1","parameterCategory":1,"la1":30.2991,"la2":30.254,"lo1":-89.0895,"lo2":-89.0444,"dy":0.0017,"dx":0.0017,"nx":28,"ny":28,"refTime":"2024-03-29T03:00:00:Z","depth":0,"parameterNumber":3,"parameterNumberName":"V-component_of_WINDS"},"data":[0,0,0,0,0,0,0,0,0,0,0,0,0,0,0,0,0,0,0,0,0,0,0,0,0,0,0,0,0,0,0,0,0,0,0,0,0,0,0,0,0,0,0,0,0,0,0,0,0,0,0,0,0,0,0,0,0,0,2.835,2.8351,0,2.8395,2.8396,2.8396,2.8465,2.8467,2.8468,2.8469,2.8513,2.8513,2.8513,0,0,0,0,0,0,0,0,0,0,0,0,0,2.8324,2.8324,2.835,2.8351,2.8351,2.8395,2.8396,2.8396,2.8465,2.8467,2.8468,2.847,2.8513,2.8513,2.8513,0,0,0,0,0,0,0,0,0,0,0,0,0,2.8349,2.8324,2.835,2.8391,2.8395,2.8395,2.8396,2.8397,2.8465,2.8467,2.8469,2.847,2.8513,2.8513,2.8513,2.8476,0,0,2.8513,2.8513,0,0,0,0,0,0,0,0,2.8347,2.835,2.8384,2.8388,2.8393,2.8427,2.8403,2.8423,2.8464,2.8438,2.8469,2.8471,2.8483,2.8485,2.849,2.8478,2.848,2.8513,2.8513,2.8513,2.8513,0,0,0,0,0,0,0,2.8345,2.8348,2.8368,2.8385,2.839,2.8407,2.8413,2.8407,2.8449,2.8441,2.8446,2.845,2.8485,2.849,2.8491,2.8481,2.8513,2.8513,2.8513,2.8513,2.8444,2.8442,0,0,0,0,0,0,2.8338,2.8346,2.8367,2.8369,2.8374,2.8406,2.8412,2.8414,2.845,2.8457,2.8449,2.8453,2.8489,2.8491,2.8493,2.8454,2.8513,2.8513,2.8514,2.8446,2.8444,2.8442,0,0,0,0,0,0,2.8337,2.8339,2.8365,2.8359,2.8364,2.8405,2.8406,2.8414,2.8418,2.8456,2.8464,2.8445,2.849,2.8493,2.8481,2.8456,2.8513,2.8514,2.8448,2.8445,2.8443,2.8374,0,0,0,0,0,0,2.8336,2.8338,2.8324,2.8358,2.8364,2.8351,2.8404,2.8413,2.8418,2.8425,2.8455,2.8461,2.8492,2.848,2.8481,2.8458,2.8514,2.8451,2.8447,2.8444,2.8379,2.8369,2.8361,0,0,0,0,0,2.8335,2.8302,2.8323,2.8325,2.8347,2.835,2.8353,2.8389,2.8416,2.8403,2.8427,2.846,2.8459,2.8478,2.848,2.8456,2.8452,2.8448,2.8444,2.8383,2.8371,2.8361,0,0,0,0,0,0,2.8263,2.8307,2.8331,2.8309,2.8325,2.8361,2.8346,2.8375,2.8384,2.839,2.8434,2.844,2.8423,2.8438,2.8459,2.8423,2.8461,2.8457,2.8414,2.8403,2.8395,2.8392,2.8514,0,0,0,0,0,2.8245,2.8243,2.8282,2.8258,2.8266,2.8304,2.8306,2.8333,2.8352,2.8359,2.8382,2.8399,2.8403,2.8404,2.8409,2.8381,2.839,2.8366,2.8357,2.835,2.8346,2.8335,2.8325,2.8428,2.8428,2.8428,0,0,2.8207,2.8231,2.8227,2.8245,2.826,2.8258,2.8309,2.8304,2.8303,2.8358,2.8348,2.8366,2.8388,2.8368,2.8361,2.838,2.8319,2.8344,2.8338,2.8338,2.8329,2.832,2.8311,2.8425,2.8426,2.8426,0,0,2.8136,2.8154,2.8137,2.8153,2.8177,2.8203,2.8199,2.8231,2.8246,2.8237,2.8279,2.8278,2.8283,2.8297,2.8305,2.8243,2.8274,2.8243,2.8197,2.8186,2.8178,2.8171,2.815,2.8142,2.8239,2.8238,2.8238,0,2.8086,2.8084,2.8125,2.8118,2.8125,2.8176,2.816,2.8173,2.8197,2.8201,2.8223,2.8232,2.8249,2.8235,2.822,2.8224,2.8222,2.824,2.8176,2.8169,2.8163,2.8144,2.8136,2.8235,2.8235,2.8236,2.8236,0,2.8022,2.802,2.8004,2.8027,2.8033,2.8021,2.8061,2.8061,2.8088,2.8112,2.8104,2.8127,2.8139,2.8138,2.8163,2.8127,2.8139,2.8168,2.8206,2.8149,2.8132,2.8125,2.8229,2.8231,2.8232,2.8233,0,0,2.7906,2.7954,2.7948,2.796,2.7991,2.7991,2.7982,2.7995,2.7995,2.801,2.8005,2.8009,2.8037,2.8045,2.8073,2.8063,2.8015,2.8093,2.8095,2.8079,2.7979,2.7958,2.7949,2.8036,2.8034,2.8033,2.7978,0,2.7843,2.7832,2.7869,2.7848,2.7848,2.7897,2.789,2.7909,2.7931,2.7935,2.796,2.7963,2.7998,2.8004,2.7996,2.8022,2.7995,2.8026,2.8032,2.8031,2.8026,2.7939,2.7917,2.7863,2.7971,2.797,2.7969,0,2.7767,2.778,2.776,2.7794,2.7796,2.7789,2.7805,2.7807,2.783,2.7847,2.7858,2.7891,2.7886,2.7923,2.7917,2.7938,2.7942,2.7955,2.7954,2.7957,2.7997,2.794,2.7846,2.7839,2.7958,2.7959,2.796,0,2.7687,2.7699,2.7689,2.7698,2.7738,2.7732,2.7748,2.7773,2.7779,2.7793,2.7797,2.781,2.7817,2.7826,2.7862,2.7885,2.7852,2.7892,2.7867,2.7867,2.7858,2.7859,2.7765,2.786,2.786,2.786,2.786,0,2.7613,2.7598,2.7654,2.7648,2.7634,2.7677,2.7662,2.7683,2.7705,2.7705,2.7748,2.7746,2.7793,2.7797,2.7825,2.7817,2.7819,2.7834,2.7842,2.7831,2.7829,2.7834,2.7839,2.7858,2.7858,2.7859,2.7859,0,2.752,2.7557,2.755,2.7589,2.7598,2.7586,2.762,2.7616,2.7642,2.7641,2.7643,2.7684,2.7691,2.7728,2.7743,2.7762,2.7745,2.7759,2.7737,2.7742,2.7717,2.7719,2.7624,2.7614,2.7714,2.7713,2.7712,0,2.7471,2.7462,2.75,2.7503,2.7518,2.7522,2.7529,2.7572,2.7578,2.7604,2.7598,2.7608,2.7619,2.7628,2.766,2.7672,2.7688,2.7654,2.769,2.768,2.7689,2.769,2.769,2.7646,2.7645,2.7644,2.7643,0,2.738,2.7399,2.7408,2.7423,2.7431,2.7445,2.7462,2.7462,2.751,2.7514,2.7522,2.7531,2.7548,2.7558,2.7576,2.7594,2.7626,2.7631,2.7627,2.7616,2.7604,2.7611,2.7717,2.7633,2.7634,2.7635,2.7635,2.7636,2.7309,2.7303,2.7331,2.7339,2.7357,2.7372,2.7371,2.7398,2.7406,2.7424,2.7449,2.7454,2.7479,2.7507,2.7522,2.7528,2.7546,2.7539,2.7537,2.7535,2.753,2.7602,2.7531,2.7531,2.7531,2.7532,2.7532,0,2.7221,2.7242,2.7249,2.7272,2.728,2.7311,2.7332,2.7336,2.7341,2.7362,2.7372,2.7383,2.7394,2.7427,2.7441,2.744,2.7455,2.7442,2.7443,2.7447,2.7512,2.7515,2.7429,2.7429,2.7429,2.7429,2.7429,2.7429,2.7176,2.717,2.7193,2.7196,2.7217,2.7223,2.7233,2.7247,2.7265,2.7275,2.7285,2.7307,2.7333,2.735,2.7362,2.7372,2.7376,2.7358,2.7372,2.7432,2.7442,2.7451,2.7455,2.7358,2.7358,2.7307,2.7307,2.7307]}]]